[[{"header":{"parameterUnit":"m.s-1","parameterCategory":1,"la1":30.2991,"la2":30.254,"lo1":-89.0895,"lo2":-89.0444,"dy":0.0017,"dx":0.0017,"nx":28,"ny":28,"refTime":"2025-03-10T03:00:00:Z","depth":0,"parameterNumber":2,"parameterNumberName":"U-component_of_WINDS"},"data":[0,0,0,0,0,0,0,0,0,0,0,0,0,0,0,0,0,0,0,0,0,0,0,0,0,0,0,0,0,0,0,0,0,0,0,0,0,0,0,0,0,0,0,0,0,0,0,0,0,0,0,0,0,0,0,0,0,0,1.7348,1.735,0,1.7476,1.7478,1.7479,1.7523,1.7523,1.7522,1.7522,1.7658,1.7662,1.7666,0,0,0,0,0,0,0,0,0,0,0,0,0,1.7147,1.715,1.7348,1.735,1.7351,1.7476,1.7478,1.748,1.7523,1.7523,1.7522,1.7522,1.7657,1.7662,1.7667,0,0,0,0,0,0,0,0,0,0,0,0,0,1.725,1.7151,1.7348,1.7388,1.7393,1.7476,1.7478,1.748,1.7524,1.7523,1.7522,1.7521,1.7655,1.7661,1.7667,1.7721,0,0,1.7686,1.7689,0,0,0,0,0,0,0,0,1.7244,1.7258,1.738,1.7385,1.7391,1.7483,1.7457,1.7561,1.7524,1.7474,1.7522,1.7521,1.7601,1.7611,1.7637,1.7727,1.7733,1.7687,1.769,1.7693,1.7695,0,0,0,0,0,0,0,1.7237,1.7253,1.7399,1.7382,1.7389,1.7402,1.7415,1.7477,1.754,1.7478,1.7482,1.7496,1.7604,1.7631,1.7641,1.7735,1.7687,1.7692,1.7696,1.7698,1.7878,1.7879,0,0,0,0,0,0,1.7223,1.7246,1.7395,1.7403,1.7314,1.7406,1.7421,1.7454,1.754,1.7552,1.7497,1.7498,1.7621,1.7634,1.7646,1.7715,1.7693,1.7699,1.7702,1.7877,1.7878,1.7879,0,0,0,0,0,0,1.7218,1.7235,1.739,1.7326,1.7346,1.741,1.7447,1.7457,1.7485,1.7554,1.7566,1.7513,1.7621,1.7637,1.7702,1.772,1.7702,1.7707,1.7876,1.7877,1.7879,1.7854,0,0,0,0,0,0,1.7212,1.7233,1.7253,1.7326,1.7349,1.7442,1.7448,1.746,1.7495,1.7497,1.7572,1.7584,1.7622,1.7693,1.7708,1.7729,1.7712,1.7874,1.7876,1.7878,1.7853,1.7854,1.7855,0,0,0,0,0,1.7205,1.7242,1.7254,1.7271,1.7375,1.7443,1.7457,1.7498,1.7496,1.7517,1.7562,1.7581,1.7716,1.7699,1.7717,1.7739,1.7873,1.7876,1.7878,1.7853,1.7854,1.7855,0,0,0,0,0,0,1.7171,1.7252,1.7266,1.7327,1.7378,1.745,1.7478,1.7498,1.7551,1.7551,1.7602,1.7619,1.768,1.7716,1.7696,1.7797,1.7796,1.7802,1.777,1.7772,1.7773,1.7763,1.7717,0,0,0,0,0,1.717,1.7217,1.7286,1.7333,1.7358,1.7413,1.7444,1.7472,1.7527,1.7549,1.7598,1.7652,1.7707,1.7742,1.7796,1.7859,1.7876,1.7883,1.7884,1.7885,1.789,1.7927,1.7931,1.7887,1.7887,1.7887,0,0,1.717,1.722,1.7247,1.7328,1.737,1.7419,1.7431,1.7482,1.7519,1.7557,1.7621,1.7659,1.7723,1.7787,1.7818,1.782,1.7906,1.7888,1.7888,1.7892,1.793,1.7934,1.7937,1.7889,1.7888,1.7888,0,0,1.7194,1.7236,1.7281,1.7323,1.7386,1.7423,1.7434,1.7504,1.753,1.7595,1.7624,1.7671,1.7763,1.7808,1.7843,1.7885,1.7906,1.7902,1.7907,1.7943,1.7946,1.7949,1.7965,1.797,1.7906,1.7906,1.7906,0,1.7186,1.7259,1.7302,1.7351,1.7387,1.7422,1.7469,1.7508,1.7587,1.7611,1.7611,1.7729,1.7774,1.785,1.786,1.7887,1.7902,1.7893,1.7942,1.7946,1.7949,1.7965,1.7971,1.7905,1.7905,1.7905,1.7906,0,1.7247,1.7298,1.7326,1.74,1.7439,1.7486,1.7538,1.7573,1.7597,1.7635,1.7701,1.7757,1.7823,1.7843,1.7868,1.7923,1.7922,1.7932,1.7932,1.7952,1.7968,1.7974,1.7904,1.7904,1.7905,1.7905,0,0,1.7253,1.7349,1.7359,1.7393,1.7467,1.7507,1.7558,1.7621,1.7651,1.7704,1.7749,1.7827,1.7836,1.7875,1.7906,1.7937,1.7969,1.7943,1.7946,1.7946,1.8034,1.8026,1.8032,1.7983,1.7984,1.7985,1.8029,0,1.7287,1.7376,1.7416,1.7489,1.7537,1.7572,1.7616,1.7667,1.7704,1.7752,1.7793,1.7848,1.7855,1.788,1.7912,1.7958,1.7987,1.7955,1.8026,1.8028,1.8009,1.8041,1.8033,1.8071,1.8035,1.8036,1.8037,0,1.7338,1.739,1.7467,1.7535,1.7557,1.7596,1.7658,1.7703,1.7762,1.7787,1.7831,1.786,1.7917,1.7913,1.7992,1.797,1.8001,1.8028,1.8031,1.8039,1.8033,1.805,1.8084,1.8089,1.8047,1.8046,1.8045,0,1.7335,1.7425,1.7483,1.7511,1.7592,1.7619,1.7654,1.7712,1.7748,1.7803,1.7828,1.7889,1.7923,1.797,1.8016,1.8009,1.8092,1.8092,1.8115,1.8114,1.813,1.8129,1.817,1.8151,1.8151,1.815,1.815,0,1.7369,1.7414,1.7482,1.7518,1.757,1.7617,1.7669,1.7707,1.7759,1.7804,1.7839,1.7881,1.7939,1.7989,1.8025,1.8086,1.8101,1.8124,1.8133,1.812,1.8118,1.8142,1.814,1.8152,1.8152,1.8151,1.8151,0,1.7374,1.7421,1.7486,1.7558,1.7577,1.7613,1.7675,1.7712,1.7751,1.7807,1.7823,1.7885,1.7945,1.7996,1.8076,1.8101,1.8164,1.8174,1.8143,1.8148,1.8168,1.8166,1.8227,1.8237,1.821,1.8211,1.8211,0,1.7392,1.7428,1.7503,1.7535,1.757,1.7621,1.7658,1.7706,1.7743,1.7814,1.7843,1.7905,1.7958,1.8053,1.8106,1.8168,1.8181,1.8198,1.819,1.8177,1.8181,1.8178,1.8183,1.8198,1.8198,1.8198,1.8198,0,1.742,1.7442,1.7492,1.7552,1.7594,1.7644,1.7694,1.7719,1.7777,1.7818,1.7879,1.792,1.8001,1.8063,1.8131,1.8169,1.8194,1.82,1.8209,1.8197,1.8177,1.8188,1.8145,1.8199,1.8198,1.8198,1.8198,1.8198,1.7433,1.7466,1.7525,1.7581,1.7624,1.767,1.7708,1.7752,1.7803,1.7872,1.7898,1.7961,1.8022,1.8115,1.8154,1.8205,1.8208,1.8221,1.8224,1.8226,1.8225,1.8169,1.8218,1.8218,1.8218,1.8218,1.8218,0,1.7462,1.7502,1.7553,1.7622,1.7666,1.7684,1.7742,1.7778,1.7833,1.7886,1.7937,1.8008,1.8069,1.8127,1.8191,1.8221,1.8234,1.8237,1.8235,1.8244,1.8218,1.8204,1.8225,1.8225,1.8225,1.8225,1.8225,1.8225,1.7483,1.7541,1.757,1.7651,1.7691,1.7752,1.7783,1.7827,1.787,1.7947,1.7997,1.8034,1.809,1.8159,1.8216,1.8232,1.8254,1.8253,1.8272,1.8247,1.8245,1.8244,1.8231,1.8258,1.8258,1.8294,1.8294,1.8294]},{"header":{"parameterUnit":"m.s-1","parameterCategory":1,"la1":30.2991,"la2":30.254,"lo1":-89.0895,"lo2":-89.0444,"dy":0.0017,"dx":0.0017,"nx":28,"ny":28,"refTime":"2025-03-10T03:00:00:Z","depth":0,"parameterNumber":3,"parameterNumberName":"V-component_of_WINDS"},"data":[0,0,0,0,0,0,0,0,0,0,0,0,0,0,0,0,0,0,0,0,0,0,0,0,0,0,0,0,0,0,0,0,0,0,0,0,0,0,0,0,0,0,0,0,0,0,0,0,0,0,0,0,0,0,0,0,0,0,3.1675,3.1675,0,3.1678,3.1678,3.1678,3.1695,3.1696,3.1696,3.1697,3.1697,3.1697,3.1696,0,0,0,0,0,0,0,0,0,0,0,0,0,3.1683,3.1682,3.1675,3.1675,3.1675,3.1678,3.1678,3.1678,3.1695,3.1696,3.1696,3.1697,3.1697,3.1697,3.1696,0,0,0,0,0,0,0,0,0,0,0,0,0,3.1682,3.1682,3.1675,3.1684,3.1685,3.1678,3.1678,3.1678,3.1695,3.1696,3.1697,3.1697,3.1698,3.1697,3.1696,3.168,0,0,3.1695,3.1694,0,0,0,0,0,0,0,0,3.1682,3.1681,3.1683,3.1684,3.1685,3.1687,3.1681,3.1678,3.1695,3.1691,3.1697,3.1697,3.1693,3.1693,3.1692,3.168,3.168,3.1695,3.1694,3.1694,3.1694,0,0,0,0,0,0,0,3.1682,3.1681,3.1676,3.1683,3.1684,3.1687,3.1688,3.168,3.1688,3.1692,3.1693,3.1693,3.1694,3.1692,3.1692,3.168,3.1695,3.1694,3.1694,3.1693,3.1652,3.1651,0,0,0,0,0,0,3.1681,3.1681,3.1676,3.1676,3.1685,3.1687,3.1687,3.1686,3.1689,3.169,3.1693,3.1694,3.1693,3.1693,3.1692,3.1672,3.1694,3.1693,3.1693,3.1653,3.1652,3.1651,0,0,0,0,0,0,3.1681,3.168,3.1676,3.1679,3.1679,3.1686,3.1684,3.1685,3.1684,3.1689,3.1691,3.169,3.1694,3.1693,3.1682,3.1672,3.1693,3.1693,3.1654,3.1653,3.1652,3.1631,0,0,0,0,0,0,3.1681,3.168,3.1675,3.1679,3.1679,3.1667,3.1683,3.1685,3.1683,3.1685,3.1687,3.1688,3.1694,3.1683,3.1682,3.1671,3.1692,3.1655,3.1653,3.1652,3.1633,3.1629,3.1626,0,0,0,0,0,3.1681,3.1669,3.1674,3.1673,3.1672,3.1666,3.1666,3.1674,3.1682,3.1676,3.1679,3.1688,3.1673,3.1682,3.1681,3.167,3.1655,3.1654,3.1652,3.1634,3.163,3.1626,0,0,0,0,0,0,3.1662,3.1669,3.1676,3.1664,3.1664,3.1669,3.1662,3.1669,3.1667,3.1669,3.1678,3.1678,3.1665,3.1667,3.1676,3.1653,3.1666,3.1664,3.1652,3.1649,3.1646,3.1645,3.1692,0,0,0,0,0,3.1657,3.1653,3.1659,3.1648,3.1648,3.1655,3.1653,3.1658,3.1659,3.1659,3.1662,3.1661,3.1656,3.1653,3.1649,3.1633,3.1633,3.1625,3.1622,3.1619,3.1617,3.1607,3.1603,3.1646,3.1646,3.1646,0,0,3.1645,3.1649,3.1645,3.1644,3.1645,3.1639,3.1655,3.1648,3.1644,3.1658,3.1648,3.165,3.1649,3.1636,3.163,3.1636,3.1605,3.1617,3.1615,3.1614,3.1605,3.1601,3.1597,3.1644,3.1645,3.1645,0,0,3.1621,3.1624,3.1615,3.1615,3.1617,3.1621,3.1619,3.1623,3.1624,3.1615,3.1625,3.1619,3.1611,3.161,3.1608,3.1583,3.159,3.1581,3.1565,3.1555,3.1551,3.1548,3.1538,3.1534,3.1579,3.1579,3.1579,0,3.1606,3.1599,3.1609,3.1601,3.16,3.1613,3.1602,3.1602,3.1602,3.16,3.1608,3.1597,3.1598,3.1584,3.1577,3.1576,3.1572,3.158,3.1551,3.1548,3.1546,3.1536,3.1532,3.1578,3.1578,3.1578,3.1578,0,3.158,3.1575,3.1567,3.1566,3.1564,3.1555,3.1562,3.1559,3.1565,3.1568,3.1557,3.1559,3.1554,3.1552,3.1557,3.1537,3.1541,3.155,3.1563,3.154,3.1531,3.1527,3.1576,3.1577,3.1577,3.1577,0,0,3.1544,3.1549,3.1545,3.1545,3.1547,3.1542,3.1534,3.153,3.1526,3.1525,3.1517,3.151,3.1517,3.1515,3.1521,3.1513,3.149,3.1522,3.1522,3.1515,3.1466,3.1459,3.1454,3.1496,3.1495,3.1494,3.1466,0,3.1519,3.1505,3.1513,3.1498,3.1492,3.1504,3.1496,3.1496,3.1499,3.1493,3.1496,3.149,3.1502,3.15,3.1493,3.1495,3.148,3.1497,3.1486,3.1486,3.1485,3.145,3.1442,3.1415,3.1462,3.1462,3.1461,0,3.1489,3.1487,3.1471,3.1473,3.1471,3.1464,3.1461,3.1456,3.1455,3.1458,3.1455,3.1463,3.1453,3.1466,3.1452,3.1463,3.1459,3.1459,3.1458,3.1457,3.1471,3.1445,3.1407,3.1402,3.1456,3.1456,3.1457,0,3.1462,3.1456,3.1445,3.1444,3.1447,3.1441,3.1442,3.1442,3.1439,3.1436,3.1434,3.1429,3.1427,3.1422,3.1427,3.1437,3.1411,3.1426,3.1412,3.1412,3.1405,3.1405,3.1364,3.1405,3.1405,3.1405,3.1405,0,3.1433,3.1422,3.1432,3.1426,3.1413,3.1422,3.141,3.1412,3.1412,3.1404,3.1415,3.1407,3.1415,3.1408,3.1412,3.1399,3.1398,3.1398,3.1399,3.1397,3.1396,3.1393,3.1395,3.1404,3.1404,3.1404,3.1405,0,3.1401,3.1407,3.1396,3.14,3.14,3.1391,3.1393,3.1386,3.139,3.138,3.1379,3.1384,3.1376,3.1381,3.1373,3.1376,3.1357,3.1362,3.1358,3.1358,3.1343,3.1344,3.1297,3.1291,3.1338,3.1337,3.1337,0,3.1381,3.1373,3.1376,3.1372,3.1372,3.1366,3.1363,3.1371,3.1367,3.1366,3.1358,3.1352,3.1347,3.1333,3.1336,3.1329,3.1332,3.1316,3.1331,3.1328,3.133,3.133,3.1328,3.1313,3.1312,3.1312,3.1312,0,3.1345,3.1349,3.1344,3.1341,3.1337,3.1334,3.1332,3.1328,3.1336,3.1331,3.1324,3.132,3.1312,3.1304,3.1299,3.1298,3.1305,3.1307,3.1303,3.13,3.1297,3.1296,3.1348,3.1308,3.1308,3.1308,3.1309,3.1309,3.1317,3.131,3.1311,3.1305,3.1305,3.1303,3.1296,3.1299,3.1293,3.1287,3.1292,3.1283,3.1281,3.1275,3.1273,3.1265,3.1271,3.1266,3.1264,3.1262,3.1259,3.1299,3.1264,3.1264,3.1264,3.1264,3.1264,0,3.1281,3.1282,3.1276,3.1274,3.1269,3.1277,3.1275,3.127,3.1262,3.1261,3.1255,3.1246,3.1238,3.124,3.1233,3.1226,3.1229,3.1223,3.1223,3.1222,3.1255,3.1258,3.1221,3.1221,3.1221,3.1221,3.1221,3.1221,3.1261,3.1249,3.1252,3.1239,3.124,3.1232,3.123,3.1227,3.1226,3.1215,3.1209,3.121,3.1209,3.1202,3.1195,3.1196,3.1192,3.1185,3.1186,3.1216,3.122,3.1224,3.1228,3.1184,3.1184,3.1154,3.1154,3.1154]}]]